STPSAT-3

Last updated on Sun Mar 12 2023 00:03:34 GMT+0000 (Coordinated Universal Time)

1 39380U 13064A 23069.72119201 .06343896 72575-5 14368-2 0 9994 2 39380 40.4911 200.9498 0008776 20.2200 118.5832 16.28970907522499

Satellite not in orbit